sat.trackr.live / text

‹ back to catalog

STARLINK-36865

NORAD 67930 · 2026-036AC

PAYLOAD ACTIVE UNKNOWN

§ Identity

Operator
Country
US
Launch date
2026-02-22
Launch site
AFETR
Launch vehicle
Mass (kg)
RCS (m²)

Purposes: comms

External: N2YO · Heavens-Above · Gunter

§ Orbital elements

Epoch: 2026-05-25T02:44:47.158944Z

Period
94.27 min
Inclination
42.9997°
Eccentricity
0.0001177
Mean motion
15.27583243 rev/d
Perigee alt
482.2 km
Apogee alt
483.8 km
Semi-major
6,861.2 km
B*
8.9328e-4
RAAN
173.3521°
Arg perigee
263.9055°
Mean anomaly
96.1663°
Rev number
1,541

§ Raw data

STARLINK-368651 67930U 26036AC  26145.11443471  .00024403  00000+0  89328-3 0  99902 67930  42.9997 173.3521 0001177 263.9055  96.1663 15.27583243 15417

JSON: /api/v1/satellites/67930 · /tle

For live sub-satellite position, see the globe view (requires WebGL).

§ Visibility from observer

Set your observer location to see the next 7 days of passes ≥ 10°. The values pass through the URL so the page stays shareable.

No JS? Fill the form by hand. The geolocation button needs JavaScript.